Date,TemperatureHighF,TemperatureAvgF,TemperatureLowF,DewpointHighF,DewpointAvgF,DewpointLowF,HumidityHigh,HumidityAvg,HumidityLow,PressureMaxIn,PressureMinIn,WindSpeedMaxMPH,WindSpeedAvgMPH,GustSpeedMaxMPH,PrecipitationSumIn
2013-8-1,82.8,73.0,67.8,72.3,68.7,66.0,96,87,66,29.96,29.75,9,3,15,0.30
2013-8-2,88.4,77.9,68.6,67.9,62.8,58.1,93,63,38,29.90,29.78,14,4,20,0.00
2013-8-3,85.5,74.6,69.1,66.2,63.9,59.9,89,71,43,29.91,29.85,6,2,12,0.02
2013-8-4,86.1,75.0,66.0,65.6,56.6,48.4,88,57,28,29.96,29.84,12,4,21,0.00
2013-8-5,85.9,74.0,63.5,58.1,52.3,46.5,67,48,26,30.04,29.95,10,2,13,0.00
2013-8-6,72.1,69.8,67.5,66.4,63.9,58.0,90,82,64,30.02,29.93,7,2,13,0.02
2013-8-7,84.5,75.7,69.4,70.2,67.6,65.6,90,77,60,30.01,29.93,13,4,18,0.00
2013-8-8,86.7,79.1,73.7,73.8,71.1,69.6,90,77,59,29.98,29.91,13,5,20,0.00
2013-8-9,92.5,83.3,75.8,73.7,71.2,68.1,89,69,48,29.91,29.78,17,6,26,0.00
2013-8-10,86.1,79.0,73.7,70.5,65.7,61.2,81,65,45,30.01,29.87,9,2,12,0.02
2013-8-11,87.2,77.8,72.0,69.2,65.8,59.4,85,68,41,30.05,29.94,9,3,14,0.00
2013-8-12,96.8,82.5,71.6,72.7,66.2,56.8,90,62,27,29.96,29.84,8,2,15,0.00
2013-8-13,91.5,79.3,70.8,73.1,68.9,63.5,92,73,43,29.84,29.66,14,3,31,0.30
2013-8-14,80.9,70.4,60.4,68.5,50.3,46.6,92,51,31,30.03,29.74,14,4,23,0.00
2013-8-15,85.1,70.5,58.9,56.7,49.2,42.2,75,51,24,30.13,30.03,10,2,13,0.00
2013-8-16,83.7,70.7,59.9,56.5,52.6,47.2,83,56,30,30.14,30.07,9,1,12,0.00
2013-8-17,82.2,72.1,62.3,62.0,56.0,50.7,83,59,34,30.20,30.13,7,2,12,0.00
2013-8-18,73.9,68.8,64.3,65.4,61.6,56.9,91,78,57,30.17,30.11,6,1,10,0.20
2013-8-19,73.0,68.2,62.9,65.5,63.0,60.5,93,84,74,30.12,30.02,10,3,13,0.00
2013-8-20,89.0,77.1,66.8,70.6,66.3,63.3,94,72,43,30.10,30.02,12,2,16,0.00
2013-8-21,91.0,78.8,71.3,73.1,69.8,65.6,95,76,45,30.14,30.01,12,4,18,0.11
2013-8-22,93.3,80.4,71.3,71.4,66.6,61.9,95,67,37,30.03,29.87,10,4,18,0.02
2013-8-23,78.1,73.0,65.6,70.1,62.7,53.6,89,71,53,30.05,29.86,9,2,15,0.09
2013-8-24,88.3,74.1,62.9,62.8,57.5,51.7,89,60,31,30.26,30.05,7,2,12,0.01
2013-8-25,86.7,73.6,62.7,64.9,56.6,48.9,92,60,29,30.35,30.21,12,2,18,0.00
2013-8-26,91.2,76.0,63.5,63.2,58.0,54.5,75,56,30,30.23,29.95,14,6,21,0.00
2013-8-27,96.3,81.8,71.1,69.3,65.6,62.6,77,60,34,29.95,29.81,13,5,18,0.00
2013-8-28,79.9,76.0,73.9,72.7,69.9,66.0,91,82,65,29.85,29.76,9,2,18,0.03
2013-8-29,90.7,77.9,72.1,71.0,68.3,63.8,92,75,41,29.96,29.76,7,2,13,0.01
2013-8-30,86.7,77.3,70.1,68.8,67.5,65.5,91,73,52,29.98,29.83,13,5,20,0.00
2013-8-31,89.5,79.1,70.6,73.2,68.9,66.3,91,72,50,29.84,29.73,12,6,20,0.00